SQ9IWE-13 Weather Reports


time (UTC)temp
C
wind
direction
speed
KPH
gust
KPH
rain 1hr
cm
rain 24hr
cm
rain mn
cm
humidity
%
barometer
mb
20260905195000 18 0 0.0 0.0 0.00 0.00 0.00 57 1018.3
20260905194000 18 0 0.0 0.0 0.00 0.00 0.00 57 1018.2
20260905192000 18 0 0.0 0.0 0.00 0.00 0.00 56 1018.2
20260905191000 18 0 0.0 0.0 0.00 0.00 0.00 57 1018.2
20260905190000 18 0 0.0 0.0 0.00 0.00 0.00 57 1018.0
20260905185000 18 0 0.0 0.0 0.00 0.00 0.00 58 1018.0
20260905184000 18 0 0.0 0.0 0.00 0.00 0.00 57 1018.0
20260905183000 18 0 0.0 0.0 0.00 0.00 0.00 57 1017.7
20260905182001 18 0 0.0 0.0 0.00 0.00 0.00 57 1017.6
20260905181001 18 0 0.0 0.0 0.00 0.00 0.00 57 1017.7
20260905175001 19 0 0.0 0.0 0.00 0.00 0.00 57 1017.5
20260905174001 19 0 0.0 0.0 0.00 0.00 0.00 58 1017.4
20260905173001 19 0 0.0 0.0 0.00 0.00 0.00 58 1017.4
20260905172001 20 0 0.0 0.0 0.00 0.00 0.00 58 1017.3
20260905171001 20 0 0.0 0.0 0.00 0.00 0.00 57 1017.3
20260905170001 20 0 0.0 0.0 0.00 0.00 0.00 57 1017.1
20260905165001 20 0 0.0 0.0 0.00 0.00 0.00 56 1017.1
20260905164001 20 0 0.0 0.0 0.00 0.00 0.00 55 1016.9
20260905163001 21 0 0.0 0.0 0.00 0.00 0.00 54 1016.9
20260905162001 21 0 0.0 0.0 0.00 0.00 0.00 53 1016.7
20260905161001 21 0 0.0 0.0 0.00 0.00 0.00 52 1016.5
20260905160001 21 0 0.0 0.0 0.00 0.00 0.00 51 1016.3
20260905153000 22 0 0.0 0.0 0.00 0.00 0.00 50 1016.3
20260905152000 22 0 0.0 0.0 0.00 0.00 0.00 50 1016.2
20260905151000 22 0 0.0 0.0 0.00 0.00 0.00 51 1016.1
20260905150000 22 0 0.0 0.0 0.00 0.00 0.00 52 1016.1
20260905145000 22 0 0.0 0.0 0.00 0.00 0.00 53 1016.0
20260905144000 22 0 0.0 0.0 0.00 0.00 0.00 53 1015.8
20260905143000 22 0 0.0 0.0 0.00 0.00 0.00 53 1015.9
20260905142000 21 0 0.0 0.0 0.00 0.00 0.00 56 1016.0
20260905141000 22 0 0.0 0.0 0.00 0.00 0.00 56 1016.1
20260905140000 22 0 0.0 0.0 0.00 0.00 0.00 54 1016.0
20260905135000 22 0 0.0 0.0 0.00 0.00 0.00 52 1016.0
20260905134000 22 0 0.0 0.0 0.00 0.00 0.00 50 1015.9
20260905132000 22 0 0.0 0.0 0.00 0.00 0.00 55 1016.1
20260905131001 22 0 0.0 0.0 0.00 0.00 0.00 57 1016.2
20260905130001 22 0 0.0 0.0 0.00 0.00 0.00 55 1016.3
20260905125001 22 0 0.0 0.0 0.00 0.00 0.00 55 1016.3
20260905124001 22 0 0.0 0.0 0.00 0.00 0.00 54 1016.4
20260905123001 22 0 0.0 0.0 0.00 0.00 0.00 56 1016.3
20260905122001 22 0 0.0 0.0 0.00 0.00 0.00 53 1016.3
20260905121001 22 0 0.0 0.0 0.00 0.00 0.00 54 1016.4
20260905120001 23 0 0.0 0.0 0.00 0.00 0.00 52 1016.5
20260905115001 24 0 0.0 0.0 0.00 0.00 0.00 52 1016.3
20260905114001 22 0 0.0 0.0 0.00 0.00 0.00 53 1016.4
20260905113001 24 0 0.0 0.0 0.00 0.00 0.00 52 1016.4
20260905112001 23 0 0.0 0.0 0.00 0.00 0.00 55 1016.5
20260905111001 23 0 0.0 0.0 0.00 0.00 0.00 56 1016.5
20260905110001 22 0 0.0 0.0 0.00 0.00 0.00 56 1016.5
20260905105001 21 0 0.0 0.0 0.00 0.00 0.00 59 1016.4
20260905104001 21 0 0.0 0.0 0.00 0.00 0.00 60 1016.4
20260905103000 22 0 0.0 0.0 0.00 0.00 0.00 57 1016.5
20260905102000 23 0 0.0 0.0 0.00 0.00 0.00 55 1016.3
20260905101000 25 0 0.0 0.0 0.00 0.00 0.00 54 1016.2
20260905100000 24 0 0.0 0.0 0.00 0.00 0.00 54 1016.3
20260905095000 23 0 0.0 0.0 0.00 0.00 0.00 56 1016.2
20260905094000 20 0 0.0 0.0 0.00 0.00 0.00 65 1016.2
20260905093000 20 0 0.0 0.0 0.00 0.00 0.00 65 1016.3
20260905092000 20 0 0.0 0.0 0.00 0.00 0.00 65 1016.4
20260905091000 20 0 0.0 0.0 0.00 0.00 0.00 67 1016.4
20260905090000 21 0 0.0 0.0 0.00 0.00 0.00 64 1016.2
20260905085000 21 0 0.0 0.0 0.00 0.00 0.00 63 1016.3
20260905084000 22 0 0.0 0.0 0.00 0.00 0.00 64 1016.1
20260905083000 23 0 0.0 0.0 0.00 0.00 0.00 61 1016.2
20260905082000 22 0 0.0 0.0 0.00 0.00 0.00 63 1016.2
20260905081000 20 0 0.0 0.0 0.00 0.00 0.00 70 1016.4
20260905080000 20 0 0.0 0.0 0.00 0.00 0.00 70 1016.4
20260905075000 18 0 0.0 0.0 0.00 0.00 0.00 74 1016.4
20260905074000 17 0 0.0 0.0 0.00 0.00 0.00 78 1016.3
20260905073000 16 0 0.0 0.0 0.00 0.00 0.00 79 1016.3
20260905072000 16 0 0.0 0.0 0.00 0.00 0.00 81 1016.2
20260905071001 16 0 0.0 0.0 0.00 0.00 0.00 82 1016.1
20260905070001 16 0 0.0 0.0 0.00 0.00 0.00 82 1015.9
20260905065001 16 0 0.0 0.0 0.00 0.00 0.00 81 1015.7
20260905064001 16 0 0.0 0.0 0.00 0.00 0.00 81 1015.8
20260905063001 16 0 0.0 0.0 0.00 0.00 0.00 81 1015.7
20260905062001 16 0 0.0 0.0 0.00 0.00 0.00 81 1015.5
20260905061001 15 0 0.0 0.0 0.00 0.00 0.00 82 1015.5
20260905060001 15 0 0.0 0.0 0.00 0.00 0.00 82 1015.4
20260905055001 15 0 0.0 0.0 0.00 0.00 0.00 82 1015.4
20260905054001 15 0 0.0 0.0 0.00 0.00 0.00 83 1014.9
20260905053001 15 0 0.0 0.0 0.00 0.00 0.00 83 1014.9
20260905052001 15 0 0.0 0.0 0.00 0.00 0.00 83 1014.8
20260905051001 16 0 0.0 0.0 0.00 0.00 0.00 83 1015.2
20260905050001 16 0 0.0 0.0 0.00 0.00 0.00 82 1014.6
20260905045001 16 0 0.0 0.0 0.00 0.00 0.00 80 1014.3
20260905044001 16 0 0.0 0.0 0.00 0.00 0.00 80 1014.4
20260905043000 16 0 0.0 0.0 0.00 0.00 0.00 81 1014.1
20260905042000 16 0 0.0 0.0 0.00 0.00 0.00 81 1014.3
20260905041000 16 0 0.0 0.0 0.00 0.00 0.00 81 1014.3
20260905040000 17 0 0.0 0.0 0.00 0.00 0.00 80 1013.9
20260905035000 17 0 0.0 0.0 0.00 0.00 0.00 81 1013.8
20260905034000 17 0 0.0 0.0 0.00 0.00 0.00 82 1013.8
20260905033000 16 0 0.0 0.0 0.00 0.00 0.00 82 1013.2
20260905032000 16 0 0.0 0.0 0.00 0.00 0.00 82 1013.1
20260905031000 16 0 0.0 0.0 0.00 0.00 0.00 82 1013.1
20260905030000 17 0 0.0 0.0 0.00 0.00 0.00 81 1012.9
20260905025000 -13 0 0.0 0.0 0.00 0.00 0.00 81 17.4
20260905024000 17 0 0.0 0.0 0.00 0.00 0.00 82 1013.0
20260905023000 17 0 0.0 0.0 0.00 0.00 0.00 83 1013.3
20260905022000 17 0 0.0 0.0 0.00 0.00 0.00 83 1013.2
20260905020847 17 0 0.0 0.0 0.00 0.00 0.00 84 1013.6
20260905015001 17 0 0.0 0.0 0.00 0.00 0.00 83 1013.0
20260905014001 17 0 0.0 0.0 0.00 0.00 0.00 80 1013.0
20260905013000 17 0 0.0 0.0 0.00 0.00 0.00 80 1012.6
20260905012000 17 0 0.0 0.0 0.00 0.00 0.00 80 1012.7
20260905011000 17 0 0.0 0.0 0.00 0.00 0.00 80 1013.0
20260905010000 18 0 0.0 0.0 0.00 0.00 0.00 76 1013.0
20260905005000 18 0 0.0 0.0 0.00 0.00 0.00 72 1012.8
20260905004000 18 0 0.0 0.0 0.00 0.00 0.00 71 1012.7
20260905003000 19 0 0.0 0.0 0.00 0.00 0.00 69 1012.6
20260905002000 19 0 0.0 0.0 0.00 0.00 0.00 68 1012.4
20260905001000 19 0 0.0 0.0 0.00 0.00 0.00 67 1012.4
20260905000001 19 0 0.0 0.0 0.00 0.00 0.00 67 1012.4
20260904235001 19 0 0.0 0.0 0.00 0.00 0.00 67 1011.9
20260904234001 20 0 0.0 0.0 0.00 0.00 0.00 66 1012.1
20260904233001 20 0 0.0 0.0 0.00 0.00 0.00 66 1012.0
20260904232001 20 0 0.0 0.0 0.00 0.00 0.00 67 1011.7
20260904231001 20 0 0.0 0.0 0.00 0.00 0.00 67 1011.6
20260904230001 20 0 0.0 0.0 0.00 0.00 0.00 66 1011.5
20260904225001 20 0 0.0 0.0 0.00 0.00 0.00 66 1011.4
20260904224001 20 0 0.0 0.0 0.00 0.00 0.00 65 1011.1
20260904223001 21 0 0.0 0.0 0.00 0.00 0.00 63 1011.0
20260904222001 21 0 0.0 0.0 0.00 0.00 0.00 62 1010.6
20260904221001 22 0 0.0 0.0 0.00 0.00 0.00 65 1010.7
20260904220001 22 0 0.0 0.0 0.00 0.00 0.00 66 6.4
20260904215001 23 0 0.0 0.0 0.00 0.00 0.00 63 1010.0
20260904214001 23 0 0.0 0.0 0.00 0.00 0.00 61 1009.8
20260904213001 23 0 0.0 0.0 0.00 0.00 0.00 62 1008.7
20260904211001 23 0 0.0 0.0 0.00 0.00 0.00 62 1008.5
20260904210001 23 0 0.0 0.0 0.00 0.00 0.00 62 1008.7
20260904205001 23 0 0.0 0.0 0.00 0.00 0.00 62 1008.7
20260904204001 23 0 0.0 0.0 0.00 0.00 0.00 63 1008.6
20260904203001 23 0 0.0 0.0 0.00 0.00 0.00 62 1008.6
20260904202001 23 0 0.0 0.0 0.00 0.00 0.00 61 1008.6
20260904201001 23 0 0.0 0.0 0.00 0.00 0.00 62 1008.8
20260904200001 23 0 0.0 0.0 0.00 0.00 0.00 63 1008.8